Preview of NWS' New Version of Forecast
This preview is not operational and should not be used for support decisions.

Regional Weather Roundup (RWR)

Issued by National Weather Service (NWS)

                            
000
ASUS42 KTBW 201020
RWRFL 
FLORIDA REGIONAL WEATHER ROUNDUP
NATIONAL WEATHER SERVICE TAMPA BAY RUSKIN FL
600 AM EDT WED MAR 20 2019

NOTE: "FAIR" INDICATES FEW OR NO CLOUDS BELOW 12,000 FEET WITH NO
SIGNIFICANT WEATHER AND/OR OBSTRUCTIONS TO VISIBILITY.

FLZ001>010-012>015-112-114-115-201100-
PANHANDLE FLORIDA
  
CITY           SKY/WX    TMP DP  RH WIND       PRES   REMARKS
PENSACOLA      FAIR      49  38  65 NE7       30.17R                  
PENSACOLA NAS  FAIR      42  37  82 N5        30.16S WCI  39          
MILTON NAS     FAIR      41  35  79 N5        30.18R WCI  38          
CRESTVIEW      FAIR      35  33  92 CALM      30.19R                  
VALPARAISO     FAIR      43  37  79 NE5       30.16R WCI  40          
MARY ESTHER    CLEAR     43  37  78 NE5       30.16R WCI  40          
PANAMA CITY    FAIR      48  41  76 NE5       30.16R                  
TYNDALL AFB    FAIR      51  43  75 E7        30.15S                  
APALACHICOLA   FAIR      48  40  73 NE8       30.14F WCI  44          

STATION/POSITION SKY/WX   TEMP    WIND        PRES    WAVE   SWELL
                          AIR SEA DIR/SP/G            HT/PER HT/PER
                          (F)     (DEG/KT/KT) (MB)    (FT/S) (FT/S)
30.1N   87.6W                                 1021.4R   2/ 4
29.2N   88.2W                      40/ 10/ 14 1021.1S   3/ 5   2/ 5
PANAMA CITY BEAC           52 63   80/  5/  8 1021.5R
TOWER C                    58      70/ 23/ 25 1020.2F

$$
FLZ011-016>038-118-127-128-134-139-239-201100-
NORTH FLORIDA
  
CITY           SKY/WX    TMP DP  RH WIND       PRES   REMARKS
MARIANNA       FAIR      43  39  86 NE7       30.18R WCI  39          
TALLAHASSEE    FAIR      50  39  66 NE8       30.17S                  
PERRY          CLOUDY    51  39  63 NE9       30.16S                  
LIVE OAK       CLOUDY    50  37  62 N5        30.16S                  
CROSS CITY     CLOUDY    55  41  60 NE9       30.14R                  
LAKE CITY      CLOUDY    52  37  58 N7        30.14F                  
GAINESVILLE    CLOUDY    57  43  59 N6        30.14S                  
WILLISTON        N/A    N/A N/A N/A MISG        N/A                   
PALATKA        CLOUDY    57  45  62 NE7G16    30.12R                  
MAYPORT NAS    CLOUDY    59  47  64 N17       30.13S                  
JACKSONVILLE   CLOUDY    53  40  61 N8        30.13F                  
JAX CECIL      CLOUDY   N/A N/A N/A N7        30.14S                  
FERNANDINA BEA CLOUDY    55  45  69 N14       30.14R                  
ST AUGUSTINE   CLOUDY    59  45  59 N15G23    30.12S                  
PALM COAST     PTCLDY    59  48  67 NE17G25   30.09R                  

STATION/POSITION SKY/WX   TEMP    WIND        PRES    WAVE   SWELL
                          AIR SEA DIR/SP/G            HT/PER HT/PER
                          (F)     (DEG/KT/KT) (MB)    (FT/S) (FT/S)
SHELL POINT      NOT AVBL
KEATON BEACH               51      40/  8/ 10 1020.6S
CEDAR KEY                  56      40/  9/ 12 1019.3R
FERNANDINA                 54 61  340/  7/ 14 1021.4R
30.7N   81.3W                 62                N/A     6/ 6   2/11
MAYPORT                    58 62   20/ 15/ 19 1020.2S
31.4N   80.9W              56 61   20/ 16/ 19 1020.8F   6/ 8   3/ 8
ST AUGUSTINE               61 62   10/ 23/ 26 1019.4R

$$
FLZ040-043>046-052-053-057-058-063-144-201100-
INTERIOR CENTRAL FLORIDA
  
CITY           SKY/WX    TMP DP  RH WIND       PRES   REMARKS
OCALA          CLOUDY    58  45  62 VRB6      30.11R                  
LEESBURG       CLOUDY    59  48  67 N13       30.09R                  
SANFORD        CLOUDY    59  56  89 N13       30.06S                  
ORLANDO EXEC   LGT RAIN  58  57  97 N8        30.06R FOG              
ORLANDO INTL   LGT RAIN  58  56  93 N14       30.06R                  
KISSIMMEE      LGT RAIN  58  57  97 N12       30.07R                  
WINTER HAVEN   CLOUDY    59  56  89 N10       30.07R                  
LAKELAND       CLOUDY    57  52  82 N14       30.06S                  
BARTOW         CLOUDY    59  55  88 N14       30.04S                  
SEBRING        CLOUDY    60  59  97 N12       30.02S                  
OKEECHOBEE     DRIZZLE   61  59  94 CALM      30.00S                  

$$
FLZ041-047-054-059-064-141-147-201100-
EAST CENTRAL FLORIDA
  
CITY           SKY/WX    TMP DP  RH WIND       PRES   REMARKS
DAYTONA BEACH  MOCLDY    61  56  83 N16       30.07S                  
DELAND         CLOUDY    57  54  88 N8        30.07R                  
JFK SPACE CTR  CLOUDY   N/A N/A N/A NE7         N/A                   
CAPE CANAVERAL MOCLDY    64  61  88 NE13G21   30.02R                  
PATRICK AFB    MOCLDY    64  64 100 N18       30.01S                  
MELBOURNE      CLOUDY    64  62  93 N13       30.01R                  
VERO BEACH     LGT RAIN  64  61  90 NE12      29.99R FOG              
FT PIERCE      LGT RAIN  64  61  90 N7        29.99R FOG              
STUART         DRIZZLE   63  61  94 NW5       29.99R                  

STATION/POSITION SKY/WX   TEMP    WIND        PRES    WAVE   SWELL
                          AIR SEA DIR/SP/G            HT/PER HT/PER
                          (F)     (DEG/KT/KT) (MB)    (FT/S) (FT/S)
28.5N   80.2W              67      50/ 19/ 25 1016.4
28.9N   78.5W              69 74   30/ 17/ 23 1016.1R   9/10   8/10
TRIDENT PIER               63 67   20/  6/ 10 1017.8R
28.4N   80.5W                 66                N/A     4/ 9   2/11
27.5N   80.2W                 69                N/A     7/ 9   2/11

$$
FLZ050-056-061-142-242-148-248-149-249-151-251-155-255-
160-260-201100-
WEST CENTRAL FLORIDA
  
CITY           SKY/WX    TMP DP  RH WIND       PRES   REMARKS
CRYSTAL RIVER  CLOUDY    55  45  67 NE7       30.09S                  
INVERNESS      CLOUDY    57  48  72 NE8       30.09S                  
BROOKSVILLE    MOCLDY    58  47  66 NE10      30.08S                  
CLEARWATER AIR MOCLDY    57  46  67 NE7       30.05S                  
ST PETE CLEARW CLOUDY    59  51  75 NE17G24   30.05S                  
TAMPA INTL     CLOUDY    60  50  69 NE13G18   30.06S                  
TAMPA EXEC     CLOUDY    59  52  77 N6        30.07S                  
PLANT CITY     CLOUDY    59  54  82 N6        30.08R                  
MACDILL AFB    CLOUDY    59  50  72 NE12      30.05R                  
PETER O KNIGHT CLOUDY    61  54  77 NE13G20   30.06R                  
ST PETERSBURG  CLOUDY    62  55  77 NE20G26   30.04S                  
SARASOTA       CLOUDY    59  54  83 NE9       30.02S                  
VENICE         CLOUDY    59  57  94 NE13      30.04R                  

STATION/POSITION SKY/WX   TEMP    WIND        PRES    WAVE   SWELL
                          AIR SEA DIR/SP/G            HT/PER HT/PER
                          (F)     (DEG/KT/KT) (MB)    (FT/S) (FT/S)
27.3N   84.2W                 72                N/A     6/ 6
CLEARWATER BEACH                   40/ 15/ 21   N/A
MIDDLE TAMPA BAY           61      50/ 23/ 27 1017.7R
VENICE                     58 72   30/  7/  9 1016.8S

$$
FLZ066-069-070-075>078-162-262-165-265-201100-
SOUTHWEST FLORIDA AND KEYS
  
CITY           SKY/WX    TMP DP  RH WIND       PRES   REMARKS
PUNTA GORDA    CLOUDY    59  56  89 NE9       30.04S                  
FT MYERS       CLOUDY    59  58  96 NE9       30.01S                  
SOUTHWEST INTL CLOUDY    59  58  96 N9        30.01S                  
NAPLES         CLOUDY   N/A N/A N/A N13       29.99S                  
MARCO ISLAND   CLOUDY    61  59  93 N12       30.00S                  
IMMOKALEE      CLOUDY    61  59  94 VRB7      29.98S                  
MARATHON       CLOUDY    71  67  87 N13       29.93R                  
KEY WEST NAS   CLOUDY    70  66  87 NE14      29.95R                  
KEY WEST INTL  CLOUDY    69  66  90 N9        29.95R                  

STATION/POSITION SKY/WX   TEMP    WIND        PRES    WAVE   SWELL
                          AIR SEA DIR/SP/G            HT/PER HT/PER
                          (F)     (DEG/KT/KT) (MB)    (FT/S) (FT/S)
NAPLES                     62 72   40/ 10/ 15 1015.5S
26.0N   85.6W              71 79   50/ 16/ 21 1016.6
DRY TORTUGAS               70      40/ 17/ 18 1014.8S
SAND KEY                   71                 1013.9S
SOMBRERO KEY               71                 1013.0R

$$
FLZ067-068-071>074-168-172>174-201100-
SOUTHEAST FLORIDA 
  
CITY           SKY/WX    TMP DP  RH WIND       PRES   REMARKS
W PALM BEACH   MOCLDY    62  61  96 NW8       29.97S                  
FT LAUDER-EXEC CLOUDY    63  63 100 NW8       29.96R                  
FT LAUDERDALE  CLOUDY    65  62  90 NW9       29.95R                  
POMPANO BEACH  CLOUDY    63  61  93 NW9       29.96R                  
PEMBROKE PINES CLOUDY    61  61 100 NW10      29.97S                  
OPA LOCKA      MOCLDY    64  62  93 N10       29.96S                  
MIAMI          CLOUDY    64  64 100 N8        29.95S                  
WEST KENDALL   LGT RAIN  64  63  96 N6        29.96S                  
HOMESTEAD      CLOUDY    64  63  94 NW14      29.94S                  

STATION/POSITION SKY/WX   TEMP    WIND        PRES    WAVE   SWELL
                          AIR SEA DIR/SP/G            HT/PER HT/PER
                          (F)     (DEG/KT/KT) (MB)    (FT/S) (FT/S)
VIRGINIA KEY                      290/  5/  7   N/A
LAKE WORTH                 63 75  330/  9/ 12 1015.6R
FOWEY ROCKS                67 76  320/ 18/ 19 1014.4R
SETTLEMENT POINT           69     100/  3/  3 1013.7R

$$